STARLINK-30837, 58212

Orbit data source: Space-Track

STARLINK-30837, 58212 is a payload satellite owned by SpaceX/Seattle (US) in LEO that was launched on Fri, 03 Nov 2023 UTC via an FALCON 9 launch vehicle from the Air Force Eastern Test Range (AFETR). Payload-class satellites include a variety of spacecraft equipped with specific instruments for various scientific and technological missions. These include communications satellites like Starlink; space stations such as the ISS; scientific satellites like the Hubble; Earth observation satellites from companies like Planet Labs, Umbra, and HawkEye 360; GPS; miniature CubeSats for education and research; and military/defense satellites.

Loading next visibility...
Identifier
58212, 2023-170G
Orbit
LEO
Country
Flag of USUS
Related business
Manufacturer
SpaceX/Seattle
Mission
Operational Commercial Communications
Bus & Motor
STARLINK V2M, Unknown motor
Mass
730 kg wet, ~700 kg dry
Launch date (UTC)
2023-11-03 (3 years ago)
Launch vehicle
FALCON 9
Launch site
Air Force Eastern Test Range (AFETR)
Object type
Payload
Rocket body
Debris
Shape & HBR
Box + 2 Pan, 17.7 m
Radar Cross Section
33.884 m², Large (>1 m²)

Expand to show TLE details & history
Last TLE update: 2 days ago

TLE from 2 days ago
0 STARLINK-30837
1 58212U 23170G   26171.47162264 -.00001609  00000-0 -48947-4 0  9994
2 58212  43.0008 334.1747 0001218 300.0069  60.0661 15.27579703146011
Epoch: 2026-06-20T11:19Z
TLE epoch observation values (Epoch: 2026-06-20T11:19:08.196Z)
Latitude
-0.00005°
Longitude
-104.29527°
Altitude
482.409 km
Speed
7.626 km/s
True Right ascension
22h 16m 41s
True Declination
0° 00' 00"
Sunlit
Object was in full shadow at epoch
Visualization orbit readout
Latitude
Unknown
Longitude
Unknown
Altitude
Unknown
Speed
Unknown
Apparent Right ascension
Unknown
Apparent Declination
Unknown
Sunlit
N/A
Visualization observer readout
Local Sidereal Time
21:42:56
Azimuth
Unknown
Elevation
Unknown
Doppler factor
Unknown
Orbital elements
Apogee altitude
485.831 km
Perigee altitude
484.159 km
Semi-major axis
6,863.132 km
Eccentricity
0.00012
Inclination
43.0008°
RAAN
334.1747°
Arg. of periapsis
300.0069°
True anomaly
60.0782°
Mean anomaly
60.0661°
Eccentric anomaly
60.07215°
Mean motion
3.81733 °/min
Orbital period
94.31 mins
BSTAR
-0.000048947
Loading maneuver chart data...
Computing Atmospheric mass density...
Loading historical data...
Loading historical data...
Loading historical data...
Loading historical data...
Loading historical data...
Loading historical data...
Loading historical data...

Documentation

Showing up to 5 results
|